sat.trackr.live / text

‹ back to catalog

STARLINK-36113

NORAD 66982 · 2025-288Z

PAYLOAD ACTIVE UNKNOWN

§ Identity

Operator
Country
US
Launch date
2025-12-08
Launch site
AFETR
Launch vehicle
Mass (kg)
RCS (m²)

Purposes: comms

External: N2YO · Heavens-Above · Gunter

§ Orbital elements

Epoch: 2026-09-20T07:01:38.961984Z

Period
94.27 min
Inclination
43.0018°
Eccentricity
0.0001499
Mean motion
15.27587596 rev/d
Perigee alt
482.0 km
Apogee alt
484.1 km
Semi-major
6,861.2 km
B*
4.6052e-4
RAAN
4.0706°
Arg perigee
267.9153°
Mean anomaly
92.1527°
Rev number
4,505

§ Raw data

STARLINK-361131 66982U 25288Z   26263.29281206  .00012435  00000+0  46052-3 0  99992 66982  43.0018   4.0706 0001499 267.9153  92.1527 15.27587596 45057

JSON: /api/v1/satellites/66982 · /tle

For live sub-satellite position, see the globe view (requires WebGL).

§ Visibility from observer

Set your observer location to see the next 7 days of passes ≥ 10°. The values pass through the URL so the page stays shareable.

No JS? Fill the form by hand. The geolocation button needs JavaScript.